Theta_e
326 322 325 323 310 311 308 312 317 317 320 325 328 323 321 330 327 326 345 349 356 356 360 362 366 367 367 366 364 363 361 360 362 362 361 363 363 364 364 363 363 362 360 359 358 356 355 353 353
321 325 325 316 307 305 307 316 314 318 324 327 325 324 322 330 339 343 342 353 356 359 360 361 366 366 367 365 364 362 361 360 362 362 361 363 363 364 364 364 363 361 359 358 356 354 354 354 353
322 323 314 310 307 304 307 315 318 322 326 325 322 326 326 338 345 345 346 355 357 359 360 363 365 365 366 365 364 362 361 361 362 362 362 363 363 363 363 363 362 359 357 355 355 354 355 354 354
314 315 315 306 305 312 313 317 320 322 325 326 324 320 340 347 346 350 348 355 354 354 358 363 364 364 365 364 363 362 362 362 362 362 362 363 363 362 362 363 361 359 355 354 354 354 354 354 353
314 311 305 305 306 311 317 320 320 320 323 323 323 319 328 346 353 352 349 353 351 351 359 360 363 364 364 364 363 362 362 362 361 362 362 363 362 361 362 361 360 358 355 353 354 355 355 355 353
306 308 300 301 306 311 315 319 319 320 322 323 322 321 331 349 350 348 349 350 351 355 358 358 363 364 363 363 363 362 361 361 361 361 362 362 361 361 361 360 359 359 357 355 355 355 356 356 355
304 304 299 301 303 308 312 318 316 319 321 321 326 320 334 345 347 348 349 349 351 358 355 356 358 362 363 363 362 362 361 361 361 360 360 361 360 360 360 359 359 359 357 356 355 356 355 355 354
307 305 301 302 302 303 313 316 318 318 319 326 327 322 333 339 341 346 346 346 349 354 352 353 355 356 359 360 362 362 361 361 360 360 360 360 360 360 359 358 358 358 356 355 354 355 354 354 353
310 300 298 300 302 305 312 311 320 323 320 322 324 326 342 348 344 333 333 343 345 350 351 351 349 351 352 354 359 360 361 361 360 360 360 357 353 355 355 354 356 357 356 354 354 354 354 353 353
305 300 300 305 306 305 310 311 314 318 316 317 322 328 338 338 335 330 328 340 342 345 348 349 348 348 346 347 356 356 357 356 356 354 356 352 350 352 349 352 357 357 357 355 354 354 353 351 340
305 300 304 305 307 308 308 309 313 312 313 319 319 325 329 332 329 328 330 344 342 344 347 347 351 350 347 346 351 349 349 349 350 351 354 352 347 352 347 350 350 353 355 350 351 350 347 341 339
301 305 305 306 308 308 306 309 310 312 315 320 323 326 327 338 332 339 340 339 336 339 347 348 351 350 353 351 349 349 349 349 349 350 355 349 351 354 348 349 351 352 350 347 346 346 347 344 343
303 304 306 308 307 307 308 306 308 310 316 320 324 325 325 329 335 337 340 341 339 336 336 346 352 354 354 361 353 349 351 350 351 351 354 352 350 355 354 353 348 350 347 347 348 346 349 349 348
304 305 306 307 306 307 304 305 307 310 316 317 321 324 325 326 329 330 334 337 340 343 338 338 338 357 357 362 359 353 353 353 354 354 354 356 355 361 356 357 359 358 357 352 348 350 353 353 352
304 301 304 305 306 305 306 302 303 310 314 314 314 324 324 326 328 329 331 337 339 341 338 338 340 336 355 356 363 359 359 357 354 357 359 357 361 364 359 360 357 358 358 359 358 358 357 355 353
301 301 296 303 305 306 305 297 304 309 311 311 314 316 323 324 328 330 330 335 339 336 336 337 342 337 342 354 358 359 361 360 363 358 363 360 361 361 364 360 360 358 361 357 355 356 355 351 349
298 293 295 298 305 304 303 299 305 309 308 308 310 316 320 324 328 332 330 332 336 341 333 335 335 333 337 357 358 361 367 366 359 362 360 359 361 360 359 360 358 362 358 354 357 353 351 351 351
293 295 297 297 301 303 301 300 304 307 307 308 309 312 316 321 325 329 331 332 337 340 329 331 337 338 349 338 353 355 360 358 363 363 363 360 358 359 361 356 360 361 354 355 355 354 353 351 347
299 298 298 301 303 301 300 300 303 306 306 306 308 311 313 318 324 330 330 330 333 336 333 335 338 341 347 338 350 351 354 358 359 361 364 360 358 359 360 358 360 359 356 354 354 352 352 350 348
298 297 297 301 305 303 301 300 303 305 306 307 308 309 312 317 320 327 327 329 330 333 334 340 343 350 359 363 365 363 355 357 355 357 359 361 358 360 360 359 358 354 350 353 352 349 344 341 340
298 296 297 298 303 304 302 299 301 305 307 308 309 311 312 313 319 325 327 326 327 331 336 336 342 346 356 361 358 358 362 357 356 355 359 356 359 361 360 359 355 354 351 348 352 349 344 336 336
295 300 300 299 298 293 302 291 300 303 304 307 308 309 311 313 318 319 326 325 326 329 333 338 336 347 358 362 359 357 353 351 350 352 355 359 359 358 358 358 355 354 348 344 341 348 343 341 330
298 302 300 300 297 297 297 294 298 304 302 305 308 309 311 314 315 315 320 329 328 328 330 333 343 349 352 357 358 352 349 352 352 354 355 358 359 359 357 356 346 347 345 341 341 342 344 335 332
303 300 300 300 297 290 295 294 295 299 302 307 311 311 312 314 317 321 326 329 328 328 330 327 334 350 352 356 353 353 352 348 343 347 346 347 348 345 343 342 344 344 344 343 341 342 341 339 335
300 297 290 289 289 288 297 294 297 306 308 309 310 310 313 314 318 320 320 324 323 325 327 337 341 344 348 350 350 346 343 339 341 340 337 337 336 339 342 343 343 343 344 342 342 342 342 340 337
297 297 291 285 287 290 298 292 298 308 310 311 311 313 315 316 318 319 319 318 322 324 329 328 338 335 339 336 330 334 332 337 330 333 331 331 331 333 340 339 339 339 340 341 343 343 339 337 336
297 295 301 295 296 292 296 299 306 308 307 307 308 313 314 317 319 319 322 323 323 325 331 331 330 331 331 331 332 332 332 331 330 329 329 328 329 326 328 330 330 333 334 336 338 335 333 335 336
301 303 294 296 287 285 292 295 296 302 304 308 310 313 314 316 316 317 319 320 321 325 326 326 324 323 324 325 326 323 324 325 326 327 327 328 328 328 327 327 328 328 329 329 329 328 330 332 332
298 297 299 299 297 289 288 292 306 304 307 302 311 313 313 313 313 314 316 317 317 318 317 320 321 321 321 321 323 323 322 322 324 324 324 323 323 321 321 321 321 320 321 323 323 324 325 323 323
301 299 299 294 293 295 292 289 309 308 307 306 310 312 313 313 313 313 313 315 315 316 316 316 319 317 318 320 321 321 320 322 322 322 322 323 321 321 319 319 318 318 318 319 318 318 318 318 317
Wind_Speed
13 14 12 12 8 8 16 20 22 23 9 1 7 6 13 14 14 2 15 16 27 21 17 17 18 17 17 17 16 16 16 15 14 13 12 12 12 12 13 12 11 10 10 10 9 9 8 8 8
11 15 11 10 12 13 15 21 24 20 5 7 5 6 8 17 9 16 10 23 23 20 16 16 18 18 17 17 16 16 16 16 15 14 13 13 12 13 12 12 11 10 9 9 8 8 8 7 7
11 14 9 7 15 17 17 23 11 20 7 12 3 5 6 11 19 17 16 23 23 18 17 16 19 19 18 18 17 17 17 16 16 15 14 13 12 12 11 10 10 9 9 8 7 7 7 6 5
7 6 9 13 21 21 25 25 11 10 14 9 6 6 12 13 9 12 19 23 20 20 19 19 20 20 19 18 17 17 17 17 17 16 15 14 12 12 11 9 8 7 7 7 6 6 6 5 4
11 9 13 17 23 25 23 23 23 7 14 16 13 10 3 15 21 19 19 19 19 19 18 17 17 20 20 19 19 18 18 17 16 16 15 14 13 12 11 10 8 7 7 7 7 7 6 6 4
9 12 16 20 25 24 22 26 23 6 12 15 9 12 6 17 17 20 18 16 19 18 16 15 16 16 18 19 18 17 17 16 16 15 15 13 12 12 11 10 10 8 8 7 7 6 6 5 5
17 14 19 24 24 23 24 22 20 15 19 14 15 10 10 16 18 17 18 16 18 20 16 12 13 14 15 17 17 17 16 16 15 13 13 13 12 12 11 10 10 8 7 6 6 5 5 5 5
15 15 25 24 20 27 23 20 16 22 12 17 8 7 4 6 22 6 16 18 20 19 17 14 13 14 12 12 15 16 16 16 15 14 13 12 12 12 11 10 8 9 8 7 7 7 7 7 7
20 17 19 27 26 20 22 24 13 8 12 21 13 14 13 16 22 27 24 12 16 18 17 15 16 14 12 12 12 13 15 14 14 12 12 11 7 9 12 11 13 11 9 9 8 8 8 8 9
20 17 27 23 22 23 24 24 16 19 18 20 13 2 18 16 25 15 24 9 14 18 19 16 15 14 14 12 12 10 11 9 9 9 10 7 8 9 11 12 13 13 11 10 10 10 9 8 6
23 24 22 24 24 23 24 25 24 21 14 18 19 13 6 16 18 21 35 18 15 13 13 18 13 13 13 11 9 6 6 6 6 10 10 8 8 7 7 5 7 6 10 6 9 8 6 9 7
25 26 25 23 22 18 24 22 24 23 14 14 20 20 4 7 23 26 5 12 14 14 17 18 16 13 10 11 10 9 8 8 7 8 10 7 5 5 7 5 9 8 7 9 6 7 9 10 9
25 22 23 22 22 23 23 22 23 24 22 14 6 9 5 1 7 9 7 5 11 11 14 8 17 11 9 9 11 11 10 10 10 10 11 8 6 4 4 4 5 8 7 9 8 7 6 9 8
20 22 20 19 21 19 23 24 21 20 20 19 9 18 11 8 5 6 7 9 10 4 6 8 13 8 8 6 9 10 9 12 10 10 11 12 7 4 5 5 4 4 4 6 7 6 5 5 5
22 21 18 20 19 20 17 23 29 18 20 22 22 15 16 14 8 5 9 9 11 8 2 4 8 12 4 8 5 6 6 6 7 7 12 13 8 5 6 4 5 4 4 5 3 2 2 1 3
17 21 21 20 19 18 22 24 23 23 21 22 24 19 14 10 16 10 8 7 6 14 5 9 5 14 23 10 5 3 4 4 2 5 6 13 10 7 4 4 3 5 4 4 4 4 4 4 5
21 17 22 21 20 19 22 25 20 20 22 24 23 21 15 20 13 13 10 8 6 6 10 10 14 18 28 21 10 6 6 4 5 4 5 10 12 12 8 5 5 4 3 4 5 1 4 6 1
19 22 18 19 21 18 22 23 20 20 22 20 24 22 22 17 19 15 13 9 5 5 7 6 13 14 12 12 3 4 5 5 5 5 5 12 9 10 10 8 2 3 2 7 5 5 2 2 3
22 22 20 19 16 18 21 22 21 20 21 21 22 18 22 19 16 19 18 16 10 8 7 6 7 4 6 16 14 7 7 7 6 5 6 11 11 6 1 6 4 1 3 4 4 3 4 2 2
25 22 18 11 10 14 17 18 18 17 19 19 21 20 20 21 17 15 16 15 11 7 7 6 3 5 2 3 0 1 2 4 7 5 6 11 9 9 5 2 4 5 6 6 6 3 1 2 3
23 20 18 14 12 16 12 18 19 18 22 21 20 20 23 24 14 14 20 17 16 8 9 8 6 3 4 4 4 3 3 4 1 4 6 4 4 3 7 6 6 6 9 5 4 4 5 4 4
21 19 20 15 12 13 15 12 16 11 17 18 18 18 20 22 13 15 21 22 18 12 8 9 6 7 3 1 2 3 0 2 3 3 2 8 9 7 6 6 8 6 1 2 2 5 5 5 4
16 17 18 15 13 15 20 12 12 12 8 14 16 19 21 19 18 21 16 23 22 14 8 5 4 6 4 7 3 4 1 3 3 2 7 8 4 4 4 5 5 3 3 4 4 3 3 4 4
19 17 16 19 16 15 19 18 13 15 4 9 18 9 15 11 7 14 12 14 17 10 8 15 10 4 3 2 3 1 4 7 6 3 5 4 4 4 5 3 6 5 4 4 4 3 5 4 4
19 17 12 13 13 13 19 19 15 14 10 4 15 20 9 15 9 11 11 5 4 9 8 6 7 5 5 5 8 9 8 7 5 6 2 2 1 2 2 1 2 3 5 5 4 4 5 5 5
22 20 12 17 12 14 18 16 7 14 15 16 18 10 3 14 13 12 13 4 6 5 9 5 11 9 8 12 8 7 8 4 5 6 6 6 6 4 6 7 5 5 5 5 4 3 5 8 8
21 21 20 18 6 5 13 7 15 14 10 17 16 17 11 14 14 14 16 17 15 15 13 13 8 11 11 9 4 4 5 6 5 7 6 5 6 7 8 5 4 6 6 6 6 6 8 9 8
21 18 18 12 7 7 15 10 7 13 10 20 18 17 17 16 18 15 15 14 14 6 8 9 10 10 9 7 5 5 7 7 6 6 6 6 5 6 6 6 6 6 6 7 7 9 10 10 10
16 10 10 7 3 7 6 4 6 10 5 14 19 16 17 18 16 15 15 14 14 12 10 10 8 7 7 6 4 3 3 3 4 4 4 4 5 6 6 6 7 7 7 7 7 9 11 13 13
19 16 14 7 9 6 7 5 16 8 9 11 5 16 16 17 18 17 13 12 12 12 11 7 6 6 4 3 3 4 4 4 3 3 4 4 5 6 7 8 9 10 11 9 10 11 12 13 13
Wind_Direction
291 266 256 260 255 228 252 255 248 269 283 98 77 329 337 98 106 134 135 129 122 134 135 137 131 134 141 145 144 140 136 136 137 132 132 132 131 126 120 116 116 120 120 116 114 109 108 103 102
283 281 262 267 250 248 246 246 261 253 127 64 9 270 272 102 126 112 130 124 128 139 143 140 136 135 140 145 145 142 139 141 140 139 141 139 137 134 126 125 126 128 126 120 117 115 114 110 110
261 265 281 241 234 242 254 253 249 321 233 150 220 297 319 60 123 141 132 123 129 141 149 140 137 136 139 144 145 143 143 145 143 145 148 147 144 137 132 130 130 133 128 121 123 117 113 109 108
231 230 251 255 250 231 242 266 298 304 304 341 223 277 92 114 346 119 140 129 140 149 145 146 140 139 141 143 145 146 146 148 148 151 152 150 146 138 136 134 133 132 128 127 134 127 122 116 122
223 262 232 240 244 255 262 249 262 238 275 244 221 217 186 132 126 139 146 137 146 153 135 149 143 142 143 146 147 149 148 151 151 155 154 151 146 144 144 140 138 142 142 144 156 151 152 153 165
222 222 246 235 242 247 251 270 288 269 254 280 254 223 110 128 137 143 152 146 143 126 133 144 138 141 143 145 147 149 150 152 154 157 155 152 151 151 150 150 156 162 159 162 175 172 177 180 194
234 225 235 245 253 242 240 252 260 257 244 249 336 294 144 142 139 149 148 158 131 121 136 147 145 141 142 144 149 149 150 152 154 154 153 156 157 157 159 166 166 169 165 171 185 186 200 212 226
225 247 243 241 246 251 257 230 246 263 267 286 338 271 78 42 28 27 150 153 137 134 141 155 155 157 157 155 151 151 151 154 154 153 157 160 161 165 170 169 180 176 173 182 190 199 211 220 231
232 238 240 241 245 247 260 265 232 167 245 267 285 276 91 112 55 360 345 156 149 141 147 162 165 164 171 159 158 150 153 154 154 156 159 158 184 180 178 192 180 185 182 190 199 210 216 225 236
227 232 238 245 250 262 268 267 245 191 203 237 233 322 99 132 122 129 288 208 160 146 153 161 168 165 174 165 150 166 164 169 176 176 171 192 205 177 196 192 180 182 189 198 209 217 218 224 244
229 239 238 244 256 262 266 273 278 275 213 201 224 251 239 145 140 168 201 216 166 162 157 157 161 162 180 163 154 175 168 176 181 181 169 205 203 188 201 170 171 181 195 205 208 210 220 220 222
229 236 240 261 269 255 258 273 273 284 267 247 208 222 184 225 149 215 78 27 47 347 162 154 152 164 196 148 160 176 173 179 178 189 173 193 228 198 184 171 187 191 187 206 219 204 209 218 224
237 242 239 239 246 258 271 264 258 271 287 246 63 118 176 129 122 122 108 89 52 6 0 120 149 164 209 159 167 179 183 179 181 180 177 193 211 206 184 208 217 181 193 195 209 204 203 201 212
241 243 248 253 253 240 248 259 260 256 265 279 206 171 212 222 160 102 99 87 73 16 13 10 353 168 208 246 174 179 192 175 177 175 176 187 195 215 182 205 230 249 231 200 203 203 202 203 220
256 263 254 236 249 249 249 246 247 244 254 263 269 183 189 206 209 143 78 78 70 44 120 68 7 344 229 233 212 177 181 180 176 177 169 179 197 225 188 207 199 224 243 267 299 348 319 278 267
243 240 248 243 228 233 252 245 241 245 242 252 262 262 190 221 202 170 121 96 48 109 145 119 66 319 308 232 218 176 214 178 218 183 154 171 178 211 243 226 239 216 215 204 208 212 227 282 180
231 237 233 244 247 227 224 247 246 256 227 242 260 257 230 206 187 175 195 149 111 82 143 141 157 177 255 202 184 188 201 189 189 215 184 176 176 183 198 233 228 250 241 229 183 10 214 240 317
228 221 238 243 223 233 237 238 239 245 256 256 230 249 255 229 190 177 181 221 161 107 86 121 167 199 249 335 309 214 193 184 219 206 211 169 181 190 185 205 148 36 327 255 10 286 34 3 346
240 232 228 221 223 246 229 235 242 237 230 240 258 238 242 245 236 195 188 187 180 121 109 79 341 326 132 188 200 223 195 194 198 202 255 171 176 169 173 227 119 194 220 237 265 285 216 247 236
235 251 259 241 238 230 250 258 251 250 242 236 242 247 252 249 235 181 178 172 200 131 124 119 162 315 341 339 287 62 199 215 194 190 200 165 159 154 162 186 173 230 253 223 217 176 313 320 297
227 238 245 250 247 231 264 262 249 244 236 230 240 235 240 251 227 174 180 173 177 166 155 132 100 24 346 359 2 15 13 327 299 174 130 65 128 164 138 183 222 246 214 183 183 170 185 230 265
219 214 240 244 247 261 242 277 270 260 253 225 227 240 236 245 238 243 186 176 185 180 158 127 110 121 182 305 268 77 13 338 286 283 170 164 140 128 175 197 227 219 321 245 229 193 197 194 238
225 218 219 236 245 262 268 254 261 285 281 281 236 224 235 230 223 234 225 177 181 189 182 190 141 126 169 170 175 148 222 276 287 359 66 108 100 144 201 201 239 186 185 252 263 266 190 201 205
218 234 224 222 230 233 241 255 251 260 254 326 337 319 252 220 26 41 4 173 177 183 164 193 206 122 6 31 47 23 18 4 337 243 117 123 139 159 214 229 180 203 213 227 247 267 216 229 247
214 213 218 224 226 240 243 243 253 95 90 68 39 17 308 75 68 56 58 68 215 143 128 123 149 142 122 74 15 28 37 12 2 352 8 52 156 156 306 231 300 199 202 226 252 259 250 224 227
208 211 219 218 221 246 248 241 176 127 112 96 74 17 124 103 115 106 129 201 86 94 103 146 94 82 60 72 59 49 36 15 27 27 18 22 10 26 34 18 4 344 332 324 305 271 244 244 244
195 218 229 252 57 284 287 121 132 146 149 146 166 191 122 102 94 93 90 83 38 23 68 56 79 75 70 69 91 62 53 53 50 33 10 12 4 351 4 3 329 319 321 315 303 280 268 271 262
235 213 217 229 170 245 265 282 123 159 176 189 154 134 126 111 108 103 96 96 103 93 85 113 85 75 92 83 47 38 37 30 24 15 14 358 358 343 332 321 310 310 303 294 286 284 279 267 258
216 196 246 299 212 204 246 258 106 143 124 332 133 127 121 117 115 114 121 125 121 99 96 91 118 115 88 99 95 83 59 35 36 10 356 1 338 321 313 309 313 303 290 283 277 275 274 268 271
216 220 190 217 234 186 174 314 12 15 57 82 259 131 124 120 117 111 104 102 106 112 111 90 71 83 87 40 78 74 47 20 360 345 330 320 315 305 306 304 297 296 292 289 282 284 279 280 282